User: anonymous   Login
Location: Waning Moon II Observatory
(30.3730°N, 89.7620°W)
Time: 08:59:02
(UTC-05:00)
Language:

Meteor 1-21 - Orbit

View from above orbital plane
View from above orbital plane
View from above satellite
View from above satellite

Ground track
Ground track

The orbit data is extracted from the following two-line orbital elements,

1 07714U 75023A   16118.91831212  .00000138  00000-0  74109-4 0  9997
2 07714  81.2105 235.9928 0029622 348.8093  11.2413 14.07921702426751
Epoch (UTC): 27 April 2016 22:02:22
Eccentricity: 0.0029622
inclination: 81.2105°
perigee height: 845 km
apogee height: 888 km
right ascension of ascending node: 235.9928°
argument of perigee: 348.8093°
revolutions per day: 14.07921702
mean anomaly at epoch: 11.2413°
orbit number at epoch: 42675

The dashed part of the orbit path shows where the satellite is in the earth's shadow,  

DLR